Location: Windsor
(43.2292°N, 89.3015°W)
Time: 08:04:05
(UTC+00:00)

JY1SAT - Visible Passes

Search period start: 25 June 2022 00:00
Search period end: 05 July 2022 00:00
Orbit: 567 x 585 km, 97.6° (Epoch: 24 June)

Date Brightness Start Highest point End Pass type
(mag) Time Alt. Az. Time Alt. Az. Time Alt. Az.
25 Jun ? 02:15:34 10° ESE 02:18:13 17° ENE 02:20:52 10° NNE visible
25 Jun ? 03:50:44 22° SSW 03:53:05 45° W 03:57:06 10° NNW visible
26 Jun ? 02:18:58 10° ESE 02:21:48 18° ENE 02:24:39 10° NNE visible
26 Jun ? 03:54:24 21° SSW 03:56:44 41° W 04:00:41 10° NNW visible
27 Jun ? 02:22:24 10° ESE 02:25:24 20° ENE 02:28:24 10° NNE visible
27 Jun ? 03:58:04 20° SSW 04:00:23 37° W 04:04:16 10° NNW visible
28 Jun ? 02:25:51 10° ESE 02:28:59 21° ENE 02:32:08 10° NNE visible
28 Jun ? 04:01:43 19° SSW 04:04:01 34° W 04:07:49 10° NNW visible
29 Jun ? 02:29:18 10° ESE 02:32:35 23° ENE 02:35:52 10° NNE visible
29 Jun ? 04:05:23 19° SW 04:07:40 31° W 04:11:23 10° NNW visible
30 Jun ? 02:32:49 10° ESE 02:36:10 25° ENE 02:39:34 10° NNE visible
30 Jun ? 04:09:03 18° SW 04:11:18 28° W 04:14:55 10° NW visible
01 Jul ? 02:36:28 11° SE 02:39:46 27° ENE 02:43:16 10° N visible
01 Jul ? 04:12:43 17° SW 04:14:56 26° W 04:18:27 10° NW visible
02 Jul ? 02:40:08 12° SE 02:43:21 29° ENE 02:46:58 10° N visible
02 Jul ? 04:16:22 16° SW 04:18:35 24° W 04:21:58 10° NW visible
03 Jul ? 02:43:48 13° SE 02:46:56 32° ENE 02:50:39 10° N visible
03 Jul ? 04:20:02 15° SW 04:22:13 22° W 04:25:27 10° NW visible
04 Jul ? 02:47:27 14° SE 02:50:31 35° ENE 02:54:18 10° N visible
04 Jul ? 04:23:42 14° SW 04:25:52 20° W 04:28:56 10° NW visible
